Regional Weather Roundup
Issued by NWS Memphis, TN

Home | Current Version | Previous Version | Text Only | Print | Product List | Glossary On
Versions: 1 2 3 4 5 6 7 8 9 10 11 12 13 14 15 16 17 18 19 20 21 22 23 24 25 26 27 28 29 30 31 32 33 34 35 36 37 38 39 40 41 42 43 44 45 46 47 48 49 50
000
ASUS44 KMEG 271910
RWRMEG
MEMPHIS CWA HOURLY WEATHER ROUNDUP
NATIONAL WEATHER SERVICE MEMPHIS TN
200 PM CDT THU AUG 27 2015

...WEST TENNESSEE...

CITY           SKY/WX    TMP DP  RH WIND       PRES   REMARKS
MEMPHIS INTL   MOSUNNY   82  55  39 NE7       30.10F
NWS MEMPHIS      N/A     81 N/A N/A MISG        N/A
JACKSON        PTSUNNY   80  58  46 NE7       30.10S
LEXINGTON      MOSUNNY   79  54  41 NE12      30.09R
DYERSBURG      PTSUNNY  N/A N/A N/A MISG        N/A
UNION CITY     PTSUNNY   79  59  50 VRB3      30.12R
PARIS          MOSUNNY   79  57  47 NE9       30.12S


...EASTERN ARKANSAS...

CITY           SKY/WX    TMP DP  RH WIND       PRES   REMARKS
JONESBORO      SUNNY     79  59  50 E8        30.11F
WEST MEMPHIS   MOSUNNY   81  59  47 MISG      30.09F
BATESVILLE     PTSUNNY   81  57  44 W3        30.13S
NEWPORT        SUNNY     81  58  45 CALM      30.13F
WALNUT RIDGE   SUNNY     81  55  41 NE8       30.12F
BLYTHEVILLE    MOSUNNY   83  61  47 VRB6      30.11F
NW BLYTHEVILLE PTSUNNY   81  57  44 N5        30.11F
SEARCY         MOSUNNY   82  59  45 NE6       30.12F
STUTTGART      MOSUNNY   81  57  44 N9        30.10F
PINE BLUFF     MOSUNNY   81  58  45 N7        30.10F
MONTICELLO     SUNNY     84  56  38 NE7       30.08F


...NORTH MISSISSIPPI...

CITY           SKY/WX    TMP DP  RH WIND       PRES   REMARKS
TUPELO         SUNNY     81  56  42 NE9       30.06S
OXFORD         MOSUNNY   79  55  44 NE8       30.10F
OLIVE BRANCH   PTSUNNY   81  55  41 E7        30.10F
TUNICA         MOSUNNY   79  59  50 NE5       30.10S
CLARKSDALE     SUNNY     81  59  47 N9        30.09F
CORINTH        PTSUNNY   79  57  47 NE6       30.07S
GREENWOOD      SUNNY     83  57  41 N5G16     30.05F
COLUMBUS       SUNNY     83  59  43 NE6       30.03S
STARKVILLE     FAIR      81  55  41 NE7       30.04F
GOLDEN TRIANGL MOSUNNY   81  57  44 N9        30.03


...SOUTHEAST MISSOURI...

CITY           SKY/WX    TMP DP  RH WIND       PRES   REMARKS
WEST PLAINS    MOSUNNY   77  57  50 E3        30.17F
POPLAR BLUFF   SUNNY     80  58  46 VRB3      30.12F
CAPE GIRARDEAU MOSUNNY   81  56  42 CALM      30.13F


...NORTHWEST ALABAMA...

CITY           SKY/WX    TMP DP  RH WIND       PRES   REMARKS
MUSCLE SHOALS  SUNNY     81  56  42 VRB5      30.06F


...MIDDLE TENNESSEE...

CITY           SKY/WX    TMP DP  RH WIND       PRES   REMARKS
NASHVILLE      MOSUNNY   81  52  36 E10       30.08F
CLARKSVILLE    SUNNY     81  53  37 VRB5G18   30.10S
COLUMBIA       SUNNY     81  57  44 VRB6      30.07S


...WESTERN KENTUCKY...

CITY           SKY/WX    TMP DP  RH WIND       PRES   REMARKS
PADUCAH        CLOUDY    79  57  46 NE7       30.14R
FORT CAMPBELL  SUNNY     81  56  42 VRB3      30.10S


...CENTRAL ARKANSAS...

CITY           SKY/WX    TMP DP  RH WIND       PRES   REMARKS
LITTLE ROCK    CLOUDY    84  57  39 CALM      30.11F


SKY/WX REPORTED AS FAIR MEANS FEW OR NO CLOUDS BELOW
12 THOUSAND FEET.



USA.gov is the U.S. government's official web portal to all federal, state and local government web resources and services.